Location: Honolulu
(21.3069°N, 157.8583°W)
Time: 06:15:29
(UTC-10:00)

A-11 Canister half - Pass Details

Date: 16 May 2026
Orbit: 1524 x 1684 km, 47.3° (Epoch: 5 June)

Event Time Altitude Azimuth Distance (km) Brightness Sun altitude
Rises 21:20:53 0° 321° (NW) 4,816 12.8 -28.8°
Reaches altitude 10° 21:25:28 10° 339° (NNW) 3,860 11.8 -29.6°
Maximum altitude 21:31:49 18° 20° (NNE) 3,275 10.9 -30.8°
Drops below altitude 10° 21:38:13 10° 60° (ENE) 3,925 10.9 -31.9°
Enters shadow 21:38:36 - 62° (ENE) 3,993 11.0 -32.0°
